Location: Barrio Las Umbrías
(40.4173°N, 4.8685°W)
Time: 11:49:09
(UTC+00:00)

NOSS 2-2 (C) - Pass Details

Date: 17 August 2022
Orbit: 433 x 1766 km, 63.3° (Epoch: 23 September)

Event Time Altitude Azimuth Distance (km) Brightness Sun altitude
Rises 20:02:24 0° 191° (S) 2,585 6.6 -9.3°
Reaches altitude 10° 20:04:48 10° 180° (S) 1,610 5.4 -9.7°
Maximum altitude 20:07:49 29° 118° (ESE) 840 3.7 -10.2°
Drops below altitude 10° 20:10:42 10° 56° (ENE) 1,542 5.3 -10.7°
Sets 20:12:57 0° 45° (NE) 2,452 6.5 -11.1°
